This demonstration page uses our WeatherBlox Daily Observations layout. Learn more.

Left ArrowRight Arrow

39.29038, -76.61219

Hourly Observations for January 10, 2020

Temp ( °F °C ) Dew Point ( °F °C ) Humidity (%) Winds ( mph kmh ) Pressure ( in mb ) Visibility ( mi km ) Precip ( " mm )
12:54 am 00:54 undefined 35 1.7 25 -3.9 67 67 undefined N/A 30.63 1037 N/A 0.00 0.00
1:54 am 01:54 undefined 35 1.7 26 -3.3 70 70 undefined N/A 30.63 1037 N/A 0.00 0.00
2:54 am 02:54 undefined 34 1.1 26 -3.3 73 73 undefined N/A 30.60 1036 N/A 0.00 0.00
3:54 am 03:54 undefined 34 1.1 27 -2.8 76 76 undefined N/A 30.58 1036 N/A 0.00 0.00
4:54 am 04:54 undefined 37 2.8 29 -1.7 73 73 undefined N/A 30.61 1037 N/A 0.00 0.00
5:54 am 05:54 undefined 37 2.8 29 -1.7 73 73 undefined N/A 30.62 1037 N/A 0.00 0.00
6:54 am 06:54 undefined 37 2.8 30 -1.1 76 76 undefined N/A 30.60 1036 N/A 0.00 0.00
7:54 am 07:54 undefined 38 3.3 30 -1.1 73 73 undefined N/A 30.59 1036 N/A 0.00 0.00
8:54 am 08:54 undefined 39 3.9 31 -0.6 73 73 undefined N/A 30.58 1036 N/A 0.00 0.00
9:54 am 09:54 undefined 44 6.7 31 -0.6 60 60 undefined N/A 30.60 1036 N/A 0.00 0.00
10:54 am 10:54 undefined 48 8.9 33 0.6 56 56 undefined N/A 30.59 1036 N/A 0.00 0.00
11:54 am 11:54 undefined 50 10 34 1.1 54 54 undefined N/A 30.54 1034 N/A 0.00 0.00
12:54 pm 12:54 undefined 53 11.7 38 3.3 57 57 undefined N/A 30.49 1033 N/A 0.00 0.00
1:54 pm 13:54 undefined 55 12.8 43 6.1 64 64 undefined N/A 30.47 1032 N/A 0.00 0.00
2:54 pm 14:54 undefined 56 13.3 43 6.1 62 62 undefined N/A 30.45 1031 N/A 0.00 0.00
3:54 pm 15:54 undefined 55 12.8 43 6.1 64 64 undefined N/A 30.45 1031 N/A 0.00 0.00
4:54 pm 16:54 undefined 54 12.2 43 6.1 67 67 undefined N/A 30.44 1031 N/A 0.00 0.00
5:54 pm 17:54 undefined 52 11.1 42 5.6 69 69 undefined N/A 30.45 1031 N/A 0.00 0.00
6:54 pm 18:54 undefined 49 9.4 41 5 74 74 undefined N/A 30.45 1031 N/A 0.00 0.00
7:54 pm 19:54 undefined 49 9.4 41 5 74 74 undefined N/A 30.44 1031 N/A 0.00 0.00
8:54 pm 20:54 undefined 49 9.4 41 5 74 74 undefined N/A 30.43 1031 N/A 0.00 0.00
9:54 pm 21:54 undefined 49 9.4 41 5 74 74 undefined N/A 30.43 1030 N/A 0.00 0.00
10:54 pm 22:54 undefined 48 8.9 42 5.6 80 80 undefined N/A 30.42 1030 N/A 0.00 0.00
11:54 pm 23:54 undefined 48 8.9 42 5.6 80 80 undefined N/A 30.41 1030 N/A 0.00 0.00

Powered by AerisWeather